Location: Caltech
(34.1382°N, 118.1253°W)
Time: 03:38:32
(UTC-07:00)

Iridium 75 - Visible Passes

Search period start: 03 July 2015 00:00
Search period end: 13 July 2015 00:00
Orbit: 776 x 779 km, 86.4° (Epoch: 02 July)

Date Brightness Start Highest point End Pass type
(mag) Time Alt. Az. Time Alt. Az. Time Alt. Az.
03 Jul 8.3 03:44:48 10° NNE 03:48:41 22° ENE 03:52:43 10° SE visible
04 Jul 8.9 03:13:39 10° ENE 03:14:45 11° ENE 03:16:15 10° E visible
04 Jul 6.0 04:50:57 10° N 04:56:08 68° W 05:01:17 10° S visible
05 Jul 6.5 04:17:27 10° N 04:22:37 62° E 04:27:46 10° SSE visible
06 Jul 7.7 03:44:21 10° NNE 03:48:58 32° E 03:53:37 10° SE visible
07 Jul 8.6 03:11:58 10° NE 03:15:08 17° ENE 03:18:33 10° ESE visible
07 Jul 6.4 04:51:13 10° NNW 04:56:10 44° W 05:01:05 10° SSW visible
08 Jul 6.0 04:17:29 10° N 04:22:44 88° W 04:27:57 10° S visible
09 Jul 6.9 03:44:09 10° N 03:49:10 47° E 03:54:12 10° SSE visible
10 Jul 8.0 03:11:17 10° NNE 03:15:27 25° E 03:19:44 10° SE visible
10 Jul 6.9 04:51:40 10° NNW 04:56:12 30° W 05:00:38 10° SW visible
11 Jul 8.6 02:39:27 10° NE 02:41:33 13° ENE 02:43:59 10° ESE visible
11 Jul 6.1 04:17:41 10° N 04:22:48 58° W 04:26:37 18° SSW visible
12 Jul 6.2 03:44:06 10° N 03:49:19 72° E 03:52:39 23° SSE visible
